This is the latest recevied weather packets stored in our database for station/object AE6DC-5. If no packets are shown the sender has not sent any weather packets the latest 10 day(s).
| Time | Temp. | Humidity | Pressure | Rain* | Wind** | Luminosity | Snow |
|---|---|---|---|---|---|---|---|
| 1777828817 | 12.22° C | 92% | 1013.2 hPa | 0 mm | - | 547 W/m² | - |
| 1777825943 | 12.22° C | 92% | 1013.4 hPa | 0 mm | - | 249 W/m² | - |
| 1777825583 | 12.22° C | 92% | 1013.5 hPa | 0 mm | - | 286 W/m² | - |
| 1777824858 | 12.22° C | 91% | 1013.7 hPa | 0 mm | - | 167 W/m² | - |
| 1777824498 | 12.22° C | 91% | 1013.7 hPa | 0 mm | - | 148 W/m² | - |
| 1777823418 | 12.22° C | 89% | 1013.3 hPa | 0 mm | - | 142 W/m² | - |
| 1777823058 | 12.22° C | 88% | 1013.3 hPa | 0 mm | - | 146 W/m² | - |
| 1777819459 | 12.78° C | 89% | 1012.6 hPa | 0 mm | - | 62 W/m² | - |
| 1777817320 | 12.78° C | 87% | 1012.3 hPa | 0 mm | - | 19 W/m² | - |
| 1777816940 | 12.78° C | 88% | 1012.2 hPa | 0 mm | - | 11 W/m² | - |
| 1777810822 | 12.78° C | 89% | 1011.5 hPa | 0 mm | - | 0 W/m² | - |
| 1777810462 | 12.78° C | 89% | 1011.6 hPa | 0 mm | - | 0 W/m² | - |
| 1777805444 | 12.22° C | 89% | 1011.7 hPa | 0 mm | - | 0 W/m² | - |
| 1777802898 | 12.22° C | 89% | 1011.6 hPa | 0 mm | - | 0 W/m² | - |
| 1777802184 | 12.22° C | 89% | 1011.6 hPa | 0 mm | - | 0 W/m² | - |
| 1777801824 | 12.22° C | 89% | 1011.7 hPa | 0 mm | - | 0 W/m² | - |
| 1777799305 | 12.78° C | 89% | 1012 hPa | 0 mm | - | 0 W/m² | - |
| 1777798579 | 12.78° C | 89% | 1012.1 hPa | 0 mm | - | 0 W/m² | - |
| 1777794618 | 12.78° C | 89% | 1012.7 hPa | 0 mm | - | 0 W/m² | - |
| 1777793178 | 12.78° C | 89% | 1012.5 hPa | 0 mm | - | 0 W/m² | - |
| 1777791022 | 12.78° C | 89% | 1012.6 hPa | 0 mm | - | 0 W/m² | - |
| 1777789579 | 12.22° C | 89% | 1012.6 hPa | 0 mm | - | 0 W/m² | - |
| 1777788499 | 12.22° C | 89% | 1012.7 hPa | 0 mm | - | 0 W/m² | - |
| 1777787057 | 12.78° C | 89% | 1013 hPa | 0 mm | - | 0 W/m² | - |
| 1777784544 | 12.78° C | 89% | 1013.1 hPa | 0 mm | - | 0 W/m² | - |
* Rain latest hour (hover to see other rain measurements)
** Current wind speed in m/s (hover to see current wind gust speed)